This is the latest recevied weather packets stored in our database for station/object XE2KK-10. If no packets are shown the sender has not sent any weather packets the latest 10 day(s).
| Time | Temp. | Humidity | Pressure | Rain* | Wind** | Luminosity | Snow |
|---|---|---|---|---|---|---|---|
| 1777680253 | 18.89° C | 84% | 1012.2 hPa | 0 mm | - | 41 W/m² | - |
| 1777679953 | 18.89° C | 85% | 1012.1 hPa | 0 mm | - | 48 W/m² | - |
| 1777679652 | 18.89° C | 85% | 1012.2 hPa | 0 mm | - | 44 W/m² | - |
| 1777679353 | 18.89° C | 85% | 1012.3 hPa | 0 mm | - | 48 W/m² | - |
| 1777679053 | 18.89° C | 86% | 1012.1 hPa | 0 mm | - | 49 W/m² | - |
| 1777678753 | 18.89° C | 86% | 1012.4 hPa | 0 mm | - | 56 W/m² | - |
| 1777678452 | 18.33° C | 87% | 1012 hPa | 0 mm | - | 64 W/m² | - |
| 1777678152 | 18.33° C | 87% | 1012.1 hPa | 0 mm | - | 64 W/m² | - |
| 1777677852 | 18.33° C | 88% | 1011.9 hPa | 0 mm | - | 62 W/m² | - |
| 1777677553 | 18.33° C | 89% | 1012.1 hPa | 0 mm | - | 60 W/m² | - |
| 1777677253 | 17.78° C | 91% | 1011.9 hPa | 0 mm | - | 65 W/m² | - |
| 1777676953 | 17.78° C | 92% | 1011.9 hPa | 0 mm | - | 73 W/m² | - |
| 1777676653 | 17.78° C | 93% | 1012.1 hPa | 0 mm | - | 82 W/m² | - |
| 1777676353 | 17.78° C | 93% | 1011.8 hPa | 0 mm | - | 91 W/m² | - |
| 1777676053 | 17.78° C | 93% | 1011.9 hPa | 0 mm | - | 100 W/m² | - |
| 1777675753 | 17.78° C | 93% | 1011.8 hPa | 0 mm | - | 59 W/m² | - |
| 1777675453 | 17.78° C | 93% | 1011.9 hPa | 0 mm | - | 54 W/m² | - |
| 1777675153 | 17.78° C | 93% | 1011.7 hPa | 0 mm | - | 98 W/m² | - |
| 1777674852 | 17.78° C | 93% | 1011.4 hPa | 0 mm | - | 80 W/m² | - |
| 1777674553 | 17.78° C | 93% | 1011.5 hPa | 0 mm | - | 74 W/m² | - |
| 1777674253 | 17.78° C | 93% | 1011.3 hPa | 0 mm | - | 88 W/m² | - |
| 1777673953 | 17.78° C | 93% | 1011.4 hPa | 0 mm | - | 87 W/m² | - |
| 1777673653 | 17.78° C | 92% | 1011.5 hPa | 0 mm | - | 76 W/m² | - |
| 1777673353 | 17.78° C | 92% | 1011.3 hPa | 0 mm | - | 74 W/m² | - |
| 1777673052 | 18.33° C | 91% | 1011.5 hPa | 0 mm | - | 59 W/m² | - |
* Rain latest hour (hover to see other rain measurements)
** Current wind speed in m/s (hover to see current wind gust speed)